Location: Newark
(42.7133°N, 87.7910°W)
Time: 18:37:47
(UTC+00:00)

Tiros 1 - Pass Details

Date: 27 October 2019
Orbit: 630 x 664 km, 48.4° (Epoch: 17 November)

Event Time Altitude Azimuth Distance (km) Brightness Sun altitude
Exits shadow 11:17:40 17° 274° (W) 1,678 8.6 -11.8°
Maximum altitude 11:20:43 33° 220° (SW) 1,119 8.1 -11.2°
Drops below altitude 10° 11:24:59 10° 157° (SSE) 2,072 10.2 -10.5°
Sets 11:27:30 0° 148° (SSE) 2,979 11.2 -10.0°
